Regional Weather Roundup
Issued by NWS Spokane, WA

Home | Current Version | Previous Version | Text Only | Print | Product List | Glossary On
Versions: 1 2 3 4 5 6 7 8 9 10 11 12 13 14 15 16 17 18 19 20 21 22 23 24 25 26 27 28 29 30 31 32 33 34 35 36 37 38 39 40 41 42 43 44 45 46 47 48 49 50
000
NZUS01 KOTX 222010
RWROTX
EASTERN WASHINGTON/NORTHERN IDAHO ROUNDUP
NATIONAL WEATHER SERVICE, SPOKANE WA
1200 PM PST MON DEC 22 2014

Note: "fair" indicated few or no clouds below 12,000 feet with no
significant weather and/or obstructions to visibility.

...NORTHEAST WASHINGTON AND NORTHERN IDAHO PANHANDLE...

CITY           SKY/WX    TMP DP  RH WIND       PRES   REMARKS
SPOKANE INTL   MOSUNNY   42  30  62 W14       30.17S
SPOKANE DOWNTO SUNNY     45  29  53 W8        30.19R
COEUR D ALENE  MOSUNNY   43  30  61 SW13      30.15S
DEER PARK      SUNNY     43  29  57 VRB3      30.17R
SANDPOINT      SUNNY     41  30  65 S7        30.13S

...SOUTHEAST WASHINGTON AND SOUTHERN IDAHO PANHANDLE...

CITY           SKY/WX    TMP DP  RH WIND       PRES   REMARKS
WALLA WALLA    PTSUNNY   50  36  58 SW10      30.28F
PULLMAN/MOSCOW MOSUNNY   42  32  67 W22       30.22R
LEWISTON       MOSUNNY   49  31  49 W18       30.23R
LOWELL           N/A     42  40  92 N3        30.21R

...COLUMBIA BASIN...

CITY           SKY/WX    TMP DP  RH WIND       PRES   REMARKS
EPHRATA        SUNNY     51  26  37 NW21G30   30.21S
MOSES LAKE     MOSUNNY   51  27  39 NW13      30.25F
TRI CITIES     MOSUNNY   53  33  46 W10       30.30R
HERMISTON      PTSUNNY   51  39  63 W8        30.31S
PENDLETON      PTSUNNY   46  38  73 W14       30.29S

...EAST SLOPES CASCADES...

CITY           SKY/WX    TMP DP  RH WIND       PRES   REMARKS
THE DALLES     MOSUNNY   56  40  55 N7        30.32F
YAKIMA         SUNNY     54  30  40 MISG      30.28F
ELLENSBURG     SUNNY     49  32  52 W25       30.25F
WENATCHEE      SUNNY     48  28  46 NW7G17    30.25R
OMAK           SUNNY     42  30  62 CALM      30.23F

...SOUTHERN BRITISH COLUMBIA...

CITY           SKY/WX    TMP DP  RH WIND       PRES   REMARKS

...WESTERN MONTANA...

CITY           SKY/WX    TMP DP  RH WIND       PRES   REMARKS
MISSOULA       CLOUDY    39  26  59 NW12      30.06R

...NEIGHBORING CITIES...

CITY           SKY/WX    TMP DP  RH WIND       PRES   REMARKS
SEATTLE        PTSUNNY   50  40  68 CALM      30.36
CALGARY        PTSUNNY   39  16  38 W7        29.90S



USA.gov is the U.S. government's official web portal to all federal, state and local government web resources and services.